Weather History for KNBT - February, 2014

Change the Weather History Date:

Friday, February 14, 2014

  Actual Average (KMRH) Record (KMRH)
Temperature  
Mean Temperature 46 °F -  
Max Temperature 57 °F 57 °F 73 °F (1989)
Min Temperature 36 °F 35 °F 11 °F (1968)
Degree Days  
Heating Degree Days 18    
Moisture  
Dew Point 36 °F    
Average Humidity 67    
Maximum Humidity 80    
Minimum Humidity 39    
Precipitation  
Precipitation 0.00 in - - ()
Sea Level Pressure  
Sea Level Pressure 29.81 in    
Wind  
Wind Speed 14 mph (SW)    
Max Wind Speed 18 mph    
Max Gust Speed 30 mph    
Averages and records for this station are not official NWS values.
T = Trace of Precipitation, MM = Missing Value Source: NWS Daily Summary

Daily Weather History Graph

Daily Weather History Graph

Search for Another Location

Airport or City:

Trip Planner

Search our weather history database for the weather conditions in past years. The results will help you decide how hot, cold, wet, or windy it might be!

Date:

Astronomy

Feb. 14, 2014 Rise Set
Actual Time 6:52 AM EST 5:47 PM EST
Civil Twilight 6:26 AM EST 6:13 PM EST
Nautical Twilight 5:57 AM EST 6:43 PM EST
Astronomical Twilight 5:27 AM EST 7:12 PM EST
Moon 5:47 PM EST (2/14) 6:19 AM EST (2/14)
Length of Visible Light 11h 46m
Length of Day
10h 54m
Full, 100% of the Moon is Illuminated
Feb 14
Full
Feb 14
Full
Feb 22
Last Quarter
Mar 1
New
Mar 8
First Quarter

Hourly Weather History & Observations

Time (EST) Temp. Windchill Dew Point Humidity Pressure Visibility Wind Dir Wind Speed Gust Speed Precip Events Conditions
12:56 AM 41.0 °F 32.2 °F 35.1 °F 79% 29.68 in - WSW 18.4 mph 29.9 mph N/A   Clear
1:56 AM 39.9 °F 31.8 °F 34.0 °F 79% 29.70 in - WSW 15.0 mph 23.0 mph N/A   Clear
2:56 AM 39.0 °F 30.3 °F 33.1 °F 79% 29.73 in - WSW 16.1 mph - N/A   Clear
3:56 AM 39.0 °F 31.0 °F 32.0 °F 76% 29.75 in - WSW 13.8 mph - N/A   Clear
5:56 AM 39.0 °F 31.4 °F 30.9 °F 73% 29.82 in - WSW 12.7 mph - N/A   Clear
6:56 AM 36.0 °F 29.0 °F 30.0 °F 79% 29.85 in - SW 9.2 mph - N/A   Clear
7:56 AM 39.0 °F 32.8 °F 32.0 °F 76% 29.85 in - SSW 9.2 mph - N/A   Clear
8:56 AM 45.0 °F 38.9 °F 32.0 °F 60% 29.85 in - SW 12.7 mph - N/A   Clear
9:56 AM 51.1 °F - 32.0 °F 48% 29.85 in - SW 13.8 mph - N/A   Clear
10:56 AM 50.0 °F - 34.0 °F 54% 29.85 in - West 12.7 mph - N/A   Clear
11:56 AM 57.0 °F - 32.0 °F 39% 29.82 in - SSW 17.3 mph - N/A   Clear
12:56 PM 57.0 °F - 35.1 °F 44% 29.80 in - SSW 17.3 mph 23.0 mph N/A   Clear
1:56 PM 57.9 °F - 37.0 °F 46% 29.80 in - SW 13.8 mph - N/A   Clear
2:56 PM 57.0 °F - 37.0 °F 47% 29.81 in - SSW 15.0 mph - N/A   Clear
3:56 PM 55.0 °F - 37.0 °F 51% 29.82 in - SW 13.8 mph 20.7 mph N/A   Clear
4:56 PM 52.0 °F - 41.0 °F 66% 29.83 in - SSW 10.4 mph - N/A   Clear
5:56 PM 48.9 °F - 39.9 °F 71% 29.82 in - SSW 11.5 mph - N/A   Clear
6:56 PM 48.0 °F - 39.9 °F 74% 29.83 in - SSW 9.2 mph - N/A   Clear
7:56 PM 46.0 °F 42.5 °F 39.9 °F 79% 29.84 in - SW 6.9 mph - N/A   Clear
8:56 PM 46.9 °F - 39.9 °F 77% 29.86 in - SSW 9.2 mph - N/A   Clear
9:56 PM 48.0 °F - 41.0 °F 77% 29.84 in - SSW 10.4 mph - N/A   Clear
10:56 PM 46.9 °F - 41.0 °F 80% 29.83 in - SSW 8.1 mph - N/A   Clear
11:56 PM 48.0 °F - 41.0 °F 77% 29.81 in - South 5.8 mph - N/A   Clear